KA2LAC Weather Reports


time (UTC)temp
F
wind
direction
speed
knots
gust
knots
rain 1hr
in
rain 24hr
in
rain mn
in
humidity
%
barometer
mb
20260504214505 83 109 8.7 13.9 0.00 0.28 0.00 64 1013.0
20260504214004 83 108 5.2 13.9 0.00 0.28 0.00 62 1013.0
20260504213502 83 95 6.1 13.9 0.00 0.28 0.00 61 1013.0
20260504213004 83 117 7.8 13.0 0.00 0.28 0.00 62 1013.0
20260504212506 83 32 5.2 11.3 0.00 0.28 0.00 63 1013.0
20260504212002 83 96 5.2 13.0 0.00 0.28 0.00 62 1013.1
20260504211503 83 88 7.0 13.0 0.00 0.28 0.00 62 1013.2
20260504211004 83 115 5.2 15.6 0.00 0.28 0.00 61 1013.1
20260504210504 84 40 4.3 15.6 0.00 0.28 0.00 61 1013.2
20260504210008 85 71 7.8 14.8 0.00 0.28 0.00 60 1013.2
20260504205504 85 84 7.0 13.0 0.00 0.28 0.00 58 1013.1
20260504205004 85 122 7.0 13.0 0.00 0.28 0.00 58 1013.2
20260504204506 85 76 7.0 13.0 0.00 0.28 0.00 58 1013.2
20260504204004 85 78 7.8 13.0 0.00 0.28 0.00 57 1013.2
20260504203505 85 61 6.1 13.0 0.00 0.28 0.00 57 1013.2
20260504203006 85 326 5.2 13.0 0.00 0.28 0.00 58 1013.2
20260504202506 85 48 7.0 13.0 0.00 0.28 0.00 57 1013.2
20260504202003 85 98 7.0 12.2 0.00 0.28 0.00 56 1013.3
20260504201507 85 62 7.0 13.9 0.00 0.28 0.00 59 1013.3
20260504201002 85 55 4.3 13.9 0.00 0.28 0.00 60 1013.4
20260504200506 85 93 7.8 16.5 0.00 0.28 0.00 58 1013.5
20260504200010 84 80 8.7 16.5 0.00 0.28 0.00 60 1013.6
20260504195503 85 98 10.4 16.5 0.00 0.28 0.00 59 1013.7
20260504195003 85 32 6.1 13.0 0.00 0.28 0.00 58 1013.6
20260504194509 84 27 5.2 13.0 0.00 0.28 0.00 60 1013.7
20260504194005 84 72 5.2 13.9 0.00 0.28 0.00 61 1013.7
20260504193508 84 71 7.0 13.9 0.00 0.28 0.00 58 1013.8
20260504193008 86 88 4.3 13.0 0.00 0.28 0.00 57 1013.9
20260504192502 85 120 7.0 13.0 0.00 0.28 0.00 57 1014.0
20260504192006 85 58 5.2 12.2 0.00 0.28 0.00 59 1014.0
20260504191508 85 78 5.2 13.0 0.00 0.28 0.00 59 1014.0
20260504191003 84 101 6.1 13.0 0.00 0.28 0.00 61 1014.2
20260504190506 84 67 7.0 13.9 0.00 0.28 0.00 59 1014.3
20260504190008 85 79 5.2 13.9 0.00 0.28 0.00 59 1014.4
20260504185504 86 84 4.3 10.4 0.00 0.28 0.00 57 1014.4
20260504185003 86 61 5.2 10.4 0.00 0.28 0.00 59 1014.4
20260504184510 85 105 3.5 12.2 0.00 0.28 0.00 59 1014.5
20260504184009 84 109 7.0 12.2 0.00 0.28 0.00 59 1014.6
20260504183504 84 60 7.0 14.8 0.00 0.28 0.00 59 1014.7
20260504183009 84 86 7.8 14.8 0.00 0.28 0.00 58 1014.7
20260504182505 85 109 9.6 14.8 0.00 0.28 0.00 57 1014.7
20260504182006 84 132 6.1 13.0 0.00 0.28 0.00 60 1014.7
20260504181508 84 91 5.2 13.0 0.00 0.28 0.00 59 1014.9
20260504181003 84 68 6.1 12.2 0.00 0.28 0.00 59 1014.9
20260504180503 84 119 6.1 10.4 0.00 0.28 0.00 62 1015.1
20260504180011 84 79 4.3 13.0 0.00 0.28 0.00 61 1015.1
20260504175508 83 91 7.0 13.0 0.00 0.28 0.00 63 1015.1
20260504175006 83 98 7.0 13.0 0.00 0.28 0.00 60 1015.1
20260504174508 83 73 5.2 14.8 0.00 0.28 0.00 62 1015.2
20260504174007 83 88 9.6 14.8 0.00 0.28 0.00 60 1015.3
20260504173504 83 117 6.1 13.9 0.00 0.28 0.00 60 1015.5
20260504173010 84 79 6.1 10.4 0.00 0.28 0.00 60 1015.5
20260504172507 83 50 3.5 11.3 0.00 0.28 0.00 63 1015.5
20260504172008 82 84 6.1 11.3 0.00 0.28 0.00 64 1015.6
20260504171512 82 76 6.1 10.4 0.00 0.28 0.00 64 1015.6
20260504171008 82 5 3.5 12.2 0.00 0.28 0.00 64 1015.7
20260504170506 81 350 3.5 13.9 0.00 0.28 0.00 65 1015.9
20260504151006 77 85 5.2 13.0 0.00 0.29 0.00 72 1016.7
20260504150507 77 94 5.2 14.8 0.00 0.29 0.00 72 1016.7
20260504141008 76 32 8.7 19.1 0.00 0.29 0.00 74 1016.4
20260504140507 76 97 6.1 13.0 0.00 0.29 0.00 74 1016.4
20260504130503 74 74 3.5 9.6 0.00 0.29 0.00 77 1015.9
20260504110507 68 27 2.6 8.7 0.00 0.29 0.00 87 1015.1
20260504100509 68 24 2.6 7.8 0.00 0.29 0.00 90 1014.4
20260504081516 69 33 2.6 5.2 0.00 0.29 0.00 89 1014.7
20260504081008 69 22 1.7 5.2 0.00 0.29 0.00 89 1014.7
20260504080507 69 27 1.7 6.1 0.00 0.29 0.00 89 1014.9
20260504050508 69 351 1.7 7.8 0.00 0.29 0.00 91 1016.0
20260504050022 69 355 2.6 7.8 0.00 0.29 0.00 91 1015.3
20260504045511 69 55 2.6 7.0 0.00 0.29 0.00 91 1015.8
20260504045003 69 35 1.7 3.5 0.00 0.29 0.00 91 1016.5
20260504044505 69 28 0.9 4.3 0.00 0.29 0.00 91 1016.5
20260504044003 69 28 0.9 4.3 0.00 0.29 0.00 91 1016.5
20260504043505 69 12 1.7 4.3 0.00 0.29 0.00 91 1016.5
20260504043008 69 26 0.0 4.3 0.00 0.29 0.00 91 1016.5
20260504042504 69 53 0.9 4.3 0.00 0.29 0.00 91 1016.4
20260504042003 69 33 0.9 4.3 0.00 0.29 0.00 91 1016.4
20260504041515 69 15 0.9 4.3 0.00 0.29 0.00 91 1016.3
20260504041007 69 45 0.9 4.3 0.00 0.29 0.00 91 1016.3
20260504040507 69 73 1.7 3.5 0.00 0.29 0.00 91 1016.3
20260504040019 69 76 0.9 5.2 0.00 0.29 0.00 91 1016.3
20260504035510 69 20 0.9 7.8 0.00 0.29 0.29 91 1016.5
20260504035007 69 63 0.0 7.8 0.00 0.29 0.29 91 1016.5
20260504034524 69 24 3.5 7.0 0.00 0.29 0.29 91 1016.3
20260504034011 69 99 1.7 6.1 0.00 0.30 0.29 91 1016.3
20260504033504 69 22 0.9 5.2 0.00 0.30 0.29 91 1016.4
20260504033009 69 22 0.9 6.1 0.00 0.30 0.29 91 1016.5
20260504032503 69 34 0.0 7.0 0.00 0.30 0.29 91 1016.5
20260504032006 69 28 2.6 8.7 0.00 0.30 0.29 91 1016.3
20260504031513 69 65 4.3 8.7 0.00 0.30 0.29 91 1016.4
20260504031008 69 60 2.6 8.7 0.00 0.30 0.29 91 1016.2
20260504030508 69 75 2.6 8.7 0.00 0.30 0.29 91 1016.4
20260504030015 69 51 3.5 9.6 0.00 0.30 0.29 91 1016.4
20260504025508 69 59 4.3 9.6 0.00 0.30 0.29 92 1016.1
20260504025007 69 105 3.5 7.8 0.00 0.31 0.29 92 1016.4
20260504024522 69 38 1.7 5.2 0.00 0.31 0.29 92 1016.8
20260504024007 69 59 1.7 5.2 0.00 0.31 0.29 92 1016.8
20260504023508 69 44 1.7 4.3 0.00 0.31 0.29 92 1017.0
20260504023022 69 70 1.7 5.2 0.00 0.32 0.29 92 1016.9
20260504022506 69 350 0.9 5.2 0.00 0.32 0.29 92 1016.9
20260504022007 69 53 0.9 2.6 0.00 0.32 0.29 92 1017.0
20260504021510 69 55 0.0 2.6 0.00 0.32 0.29 92 1016.9
20260504021007 69 39 0.0 2.6 0.00 0.32 0.29 92 1017.0
20260504020508 69 63 0.0 3.5 0.00 0.33 0.29 92 1016.9
20260504020016 68 53 0.9 5.2 0.01 0.35 0.29 92 1016.7
20260504015509 68 35 1.7 5.2 0.04 0.35 0.29 92 1016.7
20260504015008 68 92 1.7 6.1 0.16 0.36 0.29 92 1016.6
20260504014515 68 87 2.6 6.1 0.28 0.36 0.29 91 1016.6
20260504014009 68 59 1.7 5.2 0.28 0.36 0.29 91 1016.4
20260504013506 68 88 0.9 5.2 0.28 0.36 0.29 91 1016.5
20260504013032 68 82 1.7 6.1 0.28 0.36 0.29 91 1016.5
20260504012507 68 99 2.6 8.7 0.28 0.36 0.29 91 1016.4
20260504012010 68 59 2.6 8.7 0.28 0.36 0.29 91 1016.3
20260504011522 68 34 3.5 7.0 0.28 0.36 0.29 90 1016.2
20260504011004 68 91 2.6 9.6 0.28 0.37 0.29 90 1016.2
20260504010503 69 67 4.3 10.4 0.28 0.37 0.29 89 1016.2
20260504010012 69 82 3.5 10.4 0.27 0.36 0.28 88 1016.1
20260504005506 69 74 4.3 10.4 0.24 0.35 0.25 87 1016.0
20260504005007 70 85 6.1 13.9 0.12 0.23 0.13 85 1016.1
20260504004516 71 17 3.5 13.9 0.00 0.12 0.01 84 1015.9
20260504004008 71 102 4.3 13.0 0.00 0.12 0.01 83 1015.8
20260504003508 71 57 6.1 13.0 0.00 0.12 0.01 83 1015.7
20260504003030 71 69 4.3 9.6 0.00 0.14 0.01 83 1015.6
20260504002509 71 66 6.1 9.6 0.00 0.14 0.01 83 1015.7
20260504002010 71 59 5.2 11.3 0.00 0.14 0.01 83 1015.6
20260504001525 71 71 4.3 13.9 0.00 0.14 0.01 84 1015.6
20260504001008 71 79 6.1 13.9 0.00 0.14 0.01 83 1015.5
20260504000509 71 96 7.0 11.3 0.00 0.15 0.01 84 1015.5
20260504000019 71 78 5.2 9.6 0.00 0.17 0.01 84 1015.5
20260503235509 71 59 2.6 11.3 0.00 0.20 0.01 84 1015.6
20260503235008 71 80 6.1 11.3 0.00 0.23 0.01 84 1015.4
20260503234514 71 99 5.2 10.4 0.00 0.23 0.01 84 1015.4
20260503234007 71 75 3.5 12.2 0.00 0.23 0.01 85 1015.4
20260503233507 71 76 6.1 12.2 0.00 0.23 0.01 85 1015.4
20260503233018 71 11 5.2 12.2 0.00 0.23 0.01 86 1015.3
20260503232507 71 64 7.0 12.2 0.00 0.23 0.01 86 1015.3
20260503232007 71 5 5.2 11.3 0.00 0.23 0.01 87 1015.3
20260503231524 71 52 3.5 12.2 0.00 0.23 0.01 87 1015.3
20260503231007 71 67 5.2 13.9 0.00 0.23 0.01 86 1015.3
20260503230507 71 360 3.5 13.9 0.00 0.23 0.01 86 1015.2
20260503230026 71 24 6.1 13.9 0.00 0.23 0.01 86 1015.2
20260503225509 71 80 6.1 13.0 0.00 0.23 0.01 86 1015.1
20260503225009 71 346 4.3 12.2 0.00 0.23 0.01 86 1015.0
20260503224514 71 89 4.3 12.2 0.00 0.23 0.01 86 1015.0
20260503224004 71 71 5.2 12.2 0.00 0.24 0.01 86 1015.0
20260503223507 71 20 4.3 11.3 0.00 0.26 0.01 86 1015.0
20260503223018 71 59 4.3 12.2 0.00 0.28 0.01 86 1014.9
20260503222506 72 76 4.3 12.2 0.00 0.38 0.01 86 1014.9
20260503222006 72 46 4.3 11.3 0.00 0.38 0.01 86 1014.8
20260503221522 72 33 6.1 11.3 0.00 0.38 0.01 85 1014.8
20260503221012 72 43 2.6 11.3 0.00 0.38 0.01 85 1014.8
20260503220508 72 30 3.5 11.3 0.00 0.38 0.01 85 1014.9
20260503220026 72 20 5.2 11.3 0.00 0.38 0.01 85 1014.9
20260503215512 72 39 6.1 11.3 0.00 0.38 0.01 84 1015.0
20260503215007 72 349 2.6 9.6 0.00 0.38 0.01 84 1015.0